User: anonymous   Login
Location: Unspecified
(0.0000°N, 0.0000°E)
Time: 10:50:24
(UTC+01:00)
Language:

PSLV R/B - Orbit

View from above orbital plane
View from above orbital plane
View from above satellite
View from above satellite

Ground track
Ground track

The orbit data is extracted from the following two-line orbital elements,

1 29713U 07001E   17019.52212667  .00000234  00000-0  33562-4 0  9991
2 29713  97.7454 355.9609 0024238 221.1117 138.8272 14.84986023542008
Epoch (UTC): 19 January 2017 12:31:51
Eccentricity: 0.0024238
inclination: 97.7454°
perigee height: 596 km
apogee height: 630 km
right ascension of ascending node: 355.9609°
argument of perigee: 221.1117°
revolutions per day: 14.84986023
mean anomaly at epoch: 138.8272°
orbit number at epoch: 54200

The dashed part of the orbit path shows where the satellite is in the earth's shadow,  

DLR